Location: LDNL
(36.4545°S, 141.6685°E)
Time: 03:13:30
(UTC+11:00)

A-11 Canister half - Pass Details

Date: 19 August 2022
Orbit: 1524 x 1684 km, 47.3° (Epoch: 05 October)

Event Time Altitude Azimuth Distance (km) Brightness Sun altitude
Rises 18:46:16 0° 257° (WSW) 4,705 13.0 -9.4°
Reaches altitude 10° 18:49:35 10° 250° (WSW) 3,714 12.1 -10.0°
Maximum altitude 18:58:22 43° 180° (S) 2,051 9.6 -11.8°
Enters shadow 19:05:57 14° 114° (ESE) 3,377 10.2 -13.3°
Drops below altitude 10° 19:07:12 10° 110° (ESE) 3,728 - -13.5°
Sets 19:10:32 0° 103° (ESE) 4,724 - -14.2°
